User: anonymous   Login
Location: Unspecified
(0.0000°N, 0.0000°E)
Time: 20:12:28
(UTC+00:00)
Language:

Envisat - Orbit

View from above orbital plane
View from above orbital plane
View from above satellite
View from above satellite

Ground track
Ground track

The orbit data is extracted from the following two-line orbital elements,

1 27386U 02009A   21337.53448310  .00000063  00000-0  34397-4 0  9990
2 27386  98.1637 323.0787 0001315  88.9377  19.0076 14.38058197 35304
Epoch (UTC): 03 December 2021 12:49:39
Eccentricity: 0.0001315
inclination: 98.1637°
perigee height: 764 km
apogee height: 766 km
right ascension of ascending node: 323.0787°
argument of perigee: 88.9377°
revolutions per day: 14.38058197
mean anomaly at epoch: 19.0076°
orbit number at epoch: 3530

The dashed part of the orbit path shows where the satellite is in the earth's shadow,  

DLR